Location: Lafig�re
(44.4503°N, 4.0357°E)
Time: 21:40:43
(UTC+00:00)

Cosmos 1092 Rocket - Pass Details

Date: 02 February 2021
Orbit: 954 x 995 km, 83.0° (Epoch: 07 March)

Event Time Altitude Azimuth Distance (km) Brightness Sun altitude
Rises 05:15:54 0° 344° (NNW) 3,651 6.8 -19.0°
Reaches altitude 10° 05:18:35 10° 336° (NNW) 2,705 6.0 -18.5°
Maximum altitude 05:24:07 36° 272° (W) 1,494 4.4 -17.5°
Drops below altitude 10° 05:29:40 10° 209° (SSW) 2,711 6.1 -16.5°
Sets 05:32:22 0° 201° (SSW) 3,660 6.9 -16.1°
